Regional Weather Roundup
Issued by NWS

Home | Current Version | Previous Version | Text Only | Print | Product List | Glossary Off
Versions: 1 2 3 4 5 6 7 8 9 10 11 12 13 14 15 16 17 18 19 20 21 22 23 24 25 26 27 28 29 30 31 32 33 34 35 36 37 38 39 40 41 42 43 44 45 46 47 48 49 50

000
ASUS43 KOAX 290410
RWRNE

WEATHER ROUNDUP FOR NEBRASKA
NATIONAL WEATHER SERVICE OMAHA NE
1000 PM CST SUN DEC 28 2014

NOTES: SATELLITE DATA IS BEING USED TO AUGMENT CLOUD COVER ABOVE
       12000 FEET.
       "FAIR" INDICATES FEW OR NO CLOUDS BELOW 12,000 FEET WITH NO
       SIGNIFICANT WEATHER AND/OR OBSTRUCTIONS TO VISIBILITY.

  * THESE STATIONS DO NOT REPORT WEATHER SUCH AS RAIN...SNOW OR FOG.

NEZ001>004-019>022-054>056-290500-
NEBRASKA PANHANDLE

CITY           SKY/WX    TMP DP  RH WIND       PRES   REMARKS
SCOTTSBLUFF    CLOUDY    16  11  80 W6        29.97R WCI   7
ALLIANCE       CLOUDY    20  18  92 N5        29.97R WCI  13
CHADRON        LGT SNOW  18  15  88 NE15      30.05R FOG     WCI   4
KIMBALL        CLOUDY    27  20  77 NW10      29.91S WCI  17
SIDNEY         MOCLDY    10   4  76 W6        29.95R WCI   0
$$

NEZ057>060-069>072-079>082-290500-
SOUTHWEST NEBRASKA

CITY           SKY/WX    TMP DP  RH WIND       PRES   REMARKS
NORTH PLATTE   CLOUDY    18  13  80 E6        30.05R WCI  10
IMPERIAL       PTCLDY    10   7  87 NW6       30.02R WCI   0
LEXINGTON      PTCLDY    17  14  88 E7        30.07S WCI   8
MCCOOK         PTCLDY    16  12  84 E5        30.04R WCI   9
OGALLALA       PTCLDY    10   7  89 CALM      30.02R
$$

NEZ005>010-023>029-035>040-094-290500-
NORTH CENTRAL NEBRASKA

CITY           SKY/WX    TMP DP  RH WIND       PRES   REMARKS
VALENTINE      LGT SNOW  19  16  88 NE13      30.13R FOG     WCI   6
AINSWORTH      LGT SNOW  18  16  93 E7        30.13R WCI   8
BROKEN BOW     CLOUDY    21  15  78 E5        30.09R WCI  15
O`NEILL        LGT SNOW  18  16  95 NE9       30.17S WCI   6
ORD            CLOUDY    18  13  80 E6        30.13R WCI  10
THEDFORD       CLOUDY    21  17  86 NE3       30.08R
$$

NEZ041-046>049-061>064-073>077-083>087-290500-
SOUTH CENTRAL NEBRASKA

CITY           SKY/WX    TMP DP  RH WIND       PRES   REMARKS
GRAND ISLAND   CLOUDY    20  16  84 NE7       30.14R WCI  11
AURORA         CLOUDY    24  19  83 NE7       30.13S WCI  16
HASTINGS       CLOUDY    24  19  81 NE6       30.11R WCI  17
HEBRON         MOCLDY    28  23  82 CALM      30.13R
HOLDREGE       PTCLDY    19  15  84 NE6       30.08S WCI  11
KEARNEY *      CLOUDY    21  16  79 N7        30.11S WCI  13
YORK           CLOUDY    23  19  86 NE7       30.15R WCI  15
$$

NEZ011>018-030>034-042>045-290500-
NORTHEAST NEBRASKA

CITY           SKY/WX    TMP DP  RH WIND       PRES   REMARKS
NORFOLK        CLOUDY    20  15  81 NE7       30.18R WCI  11
ALBION         CLOUDY    19  15  81 N7        30.17R WCI  10
BLAIR          CLOUDY    24  20  86 N9        30.16S WCI  14
COLUMBUS *     CLOUDY    19  12  73 NE9       30.18S WCI   9
FREMONT        PTCLDY    20  17  88 N3        30.19R
TEKAMAH        MOCLDY    21  18  88 N10       30.21R WCI  10
WAYNE          CLOUDY    20  17  88 N8        30.21R WCI  11
$$

NEZ050>053-065>068-078-088>093-290500-
SOUTHEAST NEBRASKA

CITY           SKY/WX    TMP DP  RH WIND       PRES   REMARKS
LINCOLN        CLOUDY    26  21  81 N7        30.18R WCI  18
OMAHA EPPLEY   CLOUDY    25  22  88 N5        30.19F WCI  19
BEATRICE       CLOUDY    31  27  84 NE6       30.14S WCI  25
FALLS CITY     CLOUDY    31  23  72 CALM      30.17R
NEBRASKA CITY  CLOUDY    30  24  78 NE3       30.16S
PLATTSMOUTH    CLOUDY    28  24  82 N5        30.16S WCI  23
$$

NEZ044-045-051>053-067-290500-
OMAHA AREA

CITY           SKY/WX    TMP DP  RH WIND       PRES   REMARKS
OMAHA EPPLEY   CLOUDY    25  22  88 N5        30.19F WCI  19
BLAIR          CLOUDY    24  20  86 N9        30.16S WCI  14
FREMONT        PTCLDY    20  17  88 N3        30.19R
MILLARD        MOCLDY    28  21  76 CALM      30.18S
OFFUTT AFB     CLOUDY    27  22  82 NE6       30.17S WCI  20
PLATTSMOUTH    CLOUDY    28  24  82 N5        30.16S WCI  23
WAHOO          FAIR      22  18  85 N8        30.18R WCI  13
$$


USA.gov is the U.S. government's official web portal to all federal, state and local government web resources and services.